Regional Weather Roundup
Issued by NWS Upton, NY

Current Version | Previous Version | Text Only | Print | Product List | Glossary On
Versions: 1 2 3 4 5 6 7 8 9 10 11 12 13 14 15 16 17 18 19 20 21 22 23 24 25 26 27 28 29 30 31 32 33 34 35 36 37 38 39 40 41 42 43 44 45 46 47 48 49 50
000
ASUS41 KOKX 052204
RWROKX

REGIONAL WEATHER ROUNDUP
NATIONAL WEATHER SERVICE NEW YORK NY
600 PM EDT THU MAY 05 2016

NOTE: "FAIR" INDICATES FEW OR NO CLOUDS BELOW 12,000 FEET WITH NO
SIGNIFICANT WEATHER AND/OR OBSTRUCTIONS TO VISIBILITY.

NYZ071-072-176-178-NJZ106-104-052300-
NEW YORK CITY METRO AREA


CITY           SKY/WX    TMP DP  RH WIND       PRES   REMARKS
CENTRAL PARK   CLOUDY    56  42  59 NE8       29.66S
LAGUARDIA APRT CLOUDY    56  46  69 NE14      29.63F
KENNEDY INTL   CLOUDY    56  43  61 N17       29.64S
NEWARK/LIBERTY CLOUDY    57  44  62 NE15G21   29.63S
BRNX BOT. GARD   N/A     55  43  62 NE8       29.66F
TETERBORO      CLOUDY    57  41  55 NE10      29.63S
$$

NYZ177-179-078>081-052300-
LONG ISLAND NEW YORK

CITY           SKY/WX    TMP DP  RH WIND       PRES   REMARKS
FARMINGDALE    CLOUDY    53  44  71 NE18G29   29.63S
ISLIP          CLOUDY    52  44  74 NE16      29.62F
SHIRLEY        CLOUDY    50  44  80 N13G22    29.63F
RIVERHEAD        N/A     48  45  87 E6        29.63F
WESTHAMPTON    CLOUDY    45  44  97 N16G26    29.64F
EAST HAMPTON   CLOUDY    47  42  83 N8G20     29.63F
MONTAUK POINT  NOT AVBL
$$

NYZ052-065-067-052300-
HUDSON VALLEY

CITY           SKY/WX    TMP DP  RH WIND       PRES   REMARKS
WHITE PLAINS   PTSUNNY   54  43  66 N8        29.63F
NEWBURGH       CLOUDY    57  46  67 NE12G21   29.66S
MONTGOMERY     CLOUDY    57  45  64 NE13      29.65S
POUGHKEEPSIE   CLOUDY    59  44  57 NE14      29.65F
ALBANY         CLOUDY    57  44  62 NE13      29.72R
$$

NJZ001-105-106-008-010-013-015-019>022-104-052300-
NEW JERSEY

CITY           SKY/WX    TMP DP  RH WIND       PRES   REMARKS
NEWARK/LIBERTY CLOUDY    57  44  62 NE15G21   29.63S
TETERBORO      CLOUDY    57  41  55 NE10      29.63S
CALDWELL       CLOUDY    57  43  59 NE9G20    29.64R
MORRISTOWN     CLOUDY    57  41  54 E9        29.64S
SOMERVILLE     CLOUDY    59  44  57 NE6       29.61F
SUSSEX         CLOUDY    56  43  61 NE9       29.66R
ANDOVER          N/A     55  44  66 VRB7      29.65S
TRENTON        CLOUDY    57  45  64 NE9       29.62F
MILLVILLE      CLOUDY    54  45  71 NE9       29.62R
ATLANTIC CITY  CLOUDY    52  46  80 NE13      29.61S
WRIGHTSTOWN    CLOUDY    56  46  69 N12       29.60S
TOMS RIVER     CLOUDY    54  43  66 N13       29.62F
BELMAR         CLOUDY    54  44  69 NE18      29.63S
$$

PAZ047>061-062-071-052300-
EASTERN PENNSYLVANIA

CITY           SKY/WX    TMP DP  RH WIND       PRES   REMARKS
PHILADELPHIA   CLOUDY    58  45  62 NE8       29.63S
ALLENTOWN      CLOUDY    59  46  62 NE7       29.64S
SCRANTON       CLOUDY    56  44  64 N8        29.65F
$$

CTZ002-004>006-009-010-012-RIZ004-006-007-MAZ004-011-015-052300-
SOUTHERN NEW ENGLAND
 IN CT

CITY           SKY/WX    TMP DP  RH WIND       PRES   REMARKS
BRADLEY INTL   CLOUDY    51  43  74 NE14      29.68S
HARTFORD       CLOUDY    53  44  71 NE12      29.67F
DANBURY        CLOUDY    53  43  68 NE13G20   29.66F
WTRBRY/OXFORD  CLOUDY    52  41  66 NE17G24   29.66F
BRIDGEPORT     CLOUDY    55  43  63 NE16      29.64F
MERIDEN        CLOUDY    52  43  71 N12G24    29.66S
NEW HAVEN      CLOUDY    52  43  71 NE14      29.64S
CHESTER        LGT RAIN  48  45  87 NE14G23   29.64F
GROTON         CLOUDY    48  43  82 NE22G29   29.63F
WILLIMANTIC    CLOUDY    49  41  74 NE13      29.68F

 IN RI

CITY           SKY/WX    TMP DP  RH WIND       PRES   REMARKS
PROVIDENCE     LGT RAIN  45  41  86 NE20G31   29.69S
BLOCK ISLAND   CLOUDY    45  42  89 NE22G32   29.63F
WESTERLY       CLOUDY    47  40  76 N15G26    29.63F

 IN MA

CITY           SKY/WX    TMP DP  RH WIND       PRES   REMARKS
BOSTON         LGT RAIN  45  42  89 NE15      29.73F FOG
WORCESTER      LGT RAIN  42  41  96 NE12G20   29.70S VSB 3/4
WESTFIELD      CLOUDY    53  43  68 NE14G21   29.68F
PROVINCETOWN   LGT RAIN  44  42  93 NE24G35   29.68F
NANTUCKET      RAIN      45  43  93 N25G39    29.59F FOG
$$

ANZ330-335-338-340-345-350-353-355-052300-
COASTAL MARINE OBSERVATIONS


STATION/POSITION TIME  SKY/WX   TEMP    WIND        PRES    VSBY  WAVE
                                AIR SEA DIR/SP/G                  HT/PER
                 (UTC)          (F)     (DEG/KT/KT) (MB)    (MI)  (FT/S)
NY HARB ENTRANCE 2050            52 50   40/ 14/ 16 1002.6          4/ 7
20S FIRE ISLAND  2050            48 48   30/ 19/ 23 1002.1          6/ 7
GREAT SOUTH BAY  2100            52 53   10/ 14/ 21   N/A
23 SSW MONTAUK P 2150            46 46   30/ 25/ 31 1001.6          8/ 6
15 E BARNEGAT LI 2122               49                N/A           7/ 8
HUDSON CANYON    2050            47 48              1000.6         10/ 8
KINGS POINT      2100            54 54              1003.4
EXECUTION ROCKS  NOT AVBL
CENTRAL LI SOUND 2115            50      50/ 16/ 19   N/A           2/ 4
EASTERN LI SOUND 2100            48 47   40/ 17/ 23   N/A
ROBBINS REEF     2100            56      30/ 14/ 16 1002.7
$$


>>>>>>>>>>>>>>>>>>>>>>>>>>>> KEY <<<<<<<<<<<<<<<<<<<<<<<<<<<
>                                                          <
>     SKY/WX - SKY CONDITION/PRESENT WEATHER               <
>     TMP    - TEMPERATURE IN FAHRENHEIT                   <
>     DP     - DEWPOINT IN FAHRENHEIT                      <
>     RH     - RELATIVE HUMIDITY IN PERCENT                <
>     WIND   - DIRECTION AND SPEED IN MPH                  <
>     PRES   - MEAN SEA LEVEL PRESSURE IN INCHES OF HG     <
>     WCI    - WIND CHILL INDEX                            <
>     VSB    - VISIBILITY IN MILES                         <
>     HX     - HEAT INDEX                                  <
>     TC     - TEMPERATURE IN CELSIUS                      <
>     VRB    - VARIABLE WIND DIRECTION                     <
>                                                          <
>>>>>>>>>>>>>>>>>>>>>>>>>>>> KEY <<<<<<<<<<<<<<<<<<<<<<<<<<<





USA.gov is the U.S. government's official web portal to all federal, state and local government web resources and services.